TimeCST,TemperatureF,Dew PointF,Humidity,Sea Level PressureIn,VisibilityMPH,Wind Direction,Wind SpeedMPH,Gust SpeedMPH,PrecipitationIn,Events,Conditions,WindDirDegrees,DateUTC
12:56 AM,23.0,21.9,96,29.97,-9999.0,Calm,Calm,-,N/A,,Unknown,0,2014-02-13 06:56:00
1:56 AM,23.0,21.9,96,29.96,-9999.0,SSE,3.5,-,N/A,,Unknown,160,2014-02-13 07:56:00
2:56 AM,21.9,19.9,92,29.95,-9999.0,South,3.5,-,N/A,,Unknown,190,2014-02-13 08:56:00
3:56 AM,21.9,21.0,96,29.94,-9999.0,South,4.6,-,N/A,,Unknown,190,2014-02-13 09:56:00
4:56 AM,19.9,19.0,96,29.93,-9999.0,SSE,3.5,-,N/A,,Unknown,160,2014-02-13 10:56:00
5:56 AM,21.9,21.0,96,29.93,-9999.0,South,3.5,-,N/A,,Unknown,180,2014-02-13 11:56:00
6:56 AM,21.0,19.9,96,29.93,-9999.0,SSW,3.5,-,N/A,,Unknown,200,2014-02-13 12:56:00
7:56 AM,19.9,18.0,92,29.93,-9999.0,South,5.8,-,N/A,,Unknown,180,2014-02-13 13:56:00
8:56 AM,27.0,26.1,96,29.93,-9999.0,Calm,Calm,-,N/A,,Unknown,0,2014-02-13 14:56:00
9:56 AM,35.1,28.9,78,29.94,-9999.0,Variable,3.5,-,N/A,,Unknown,0,2014-02-13 15:56:00
10:56 AM,44.1,30.9,60,29.93,-9999.0,NNW,6.9,-,N/A,,Unknown,330,2014-02-13 16:56:00
11:56 AM,46.9,30.0,52,29.93,-9999.0,NW,10.4,-,N/A,,Unknown,320,2014-02-13 17:56:00
12:56 PM,48.9,30.9,50,29.91,-9999.0,North,10.4,-,N/A,,Unknown,350,2014-02-13 18:56:00
1:56 PM,50.0,32.0,50,29.87,-9999.0,North,6.9,-,N/A,,Unknown,360,2014-02-13 19:56:00
2:56 PM,52.0,32.0,47,29.86,-9999.0,Calm,Calm,-,N/A,,Unknown,0,2014-02-13 20:56:00
3:56 PM,54.0,33.1,45,29.85,-9999.0,Calm,Calm,-,N/A,,Unknown,0,2014-02-13 21:56:00
4:56 PM,52.0,32.0,47,29.86,-9999.0,SSW,6.9,-,N/A,,Unknown,210,2014-02-13 22:56:00
5:56 PM,48.9,33.1,54,29.84,-9999.0,South,5.8,-,N/A,,Unknown,190,2014-02-13 23:56:00
6:56 PM,45.0,34.0,65,29.84,-9999.0,SSW,4.6,-,N/A,,Unknown,200,2014-02-14 00:56:00
7:56 PM,43.0,34.0,71,29.84,-9999.0,South,5.8,-,N/A,,Unknown,180,2014-02-14 01:56:00
8:56 PM,37.9,33.1,83,29.83,-9999.0,Calm,Calm,-,N/A,,Unknown,0,2014-02-14 02:56:00
9:56 PM,41.0,33.1,73,29.78,-9999.0,SSW,5.8,-,N/A,,Unknown,200,2014-02-14 03:56:00
10:56 PM,36.0,32.0,86,29.75,-9999.0,South,3.5,-,N/A,,Unknown,190,2014-02-14 04:56:00
11:56 PM,33.1,30.9,92,29.75,-9999.0,Calm,Calm,-,N/A,,Unknown,0,2014-02-14 05:56:00